Date String (YYYY-MM-DD hh:mm:ss) UTC,Instrument flags,Ambient pressure (hPa),Sample flow (lpm),Bypass flow (lpm),Sample temperature (°C),Ambient temperature (°C),ASC tube jacket temperature (°C),LED temperature (°C),Box temperature (°C),Sample RH (%),Span deviation,Mass concentration (μg/m³),Mass concentration (μg/m³),Mass concentration (μg/m³)
DateTimeUTC,F1_M11,P_M11,Q1_M11,Q2_M11,T1_M11,T2_M11,T3_M11,T4_M11,T5_M11,U1_M11,ZSPAN_M11,X0_M11,X2_M11,X1_M11
2022-10-01 14:00:00,,0827.2,4.99,0.00,29.8,28.3,00.0,38.5,31.6,20.6,0000.0,0001.44,0001.04,0000.87
2022-10-01 14:01:00,,0827.3,5.01,0.00,29.8,28.3,00.0,38.5,31.6,20.6,0000.0,0001.41,0001.03,0000.87
2022-10-01 14:02:00,,0827.1,4.99,0.00,29.8,28.3,00.0,38.5,31.6,21.7,0000.0,0001.48,0001.07,0000.89
2022-10-01 14:03:00,,0827.1,5.00,0.00,29.8,28.3,00.0,38.5,31.6,22.0,0000.0,0001.50,0001.08,0000.91
2022-10-01 14:04:00,,0827.1,5.00,0.00,29.8,28.3,00.0,38.5,31.6,21.4,0000.0,0001.53,0001.11,0000.93
2022-10-01 14:05:00,,0827.2,5.01,0.00,29.8,28.3,00.0,38.5,31.6,22.0,0000.0,0001.57,0001.14,0000.94
2022-10-01 14:06:00,,0827.2,5.02,0.00,29.8,28.4,00.0,38.5,31.6,22.8,0000.0,0001.75,0001.16,0000.94
2022-10-01 14:07:00,,0827.2,4.99,0.00,29.8,28.4,00.0,38.5,31.7,23.5,0000.0,0001.89,0001.22,0000.96
2022-10-01 14:08:00,,0827.2,5.00,0.00,29.8,28.4,00.0,38.5,31.7,21.9,0000.0,0001.98,0001.25,0000.98
2022-10-01 14:09:00,,0827.2,5.00,0.00,29.8,28.4,00.0,38.5,31.7,20.6,0000.0,0001.91,0001.23,0000.99
2022-10-01 14:10:00,,0827.3,5.00,0.00,29.8,28.4,00.0,38.5,31.7,21.1,0000.0,0001.93,0001.25,0000.99
2022-10-01 14:11:00,,0827.4,5.01,0.00,29.8,28.4,00.0,38.6,31.7,22.8,0000.0,0002.00,0001.27,0001.00
2022-10-01 14:12:00,,0827.2,4.99,0.00,29.8,28.5,00.0,38.6,31.7,23.8,0000.0,0002.04,0001.28,0001.00
2022-10-01 14:13:00,,0827.3,5.00,0.00,29.9,28.5,00.0,38.6,31.7,23.0,0000.0,0002.00,0001.27,0001.00
2022-10-01 14:14:00,,0827.3,5.01,0.00,29.9,28.5,00.0,38.6,31.7,22.5,0000.0,0002.06,0001.27,0000.98
2022-10-01 14:15:00,,0827.4,5.01,0.00,29.9,28.5,00.0,38.6,31.7,22.3,0000.0,0002.02,0001.24,0000.96
2022-10-01 14:16:00,,0827.3,4.99,0.00,29.9,28.5,00.0,38.6,31.7,23.1,0000.0,0002.03,0001.24,0000.95
2022-10-01 14:17:00,,0827.2,5.01,0.00,29.9,28.5,00.0,38.6,31.7,24.6,0000.0,0001.96,0001.25,0000.95
2022-10-01 14:18:00,,0827.2,4.99,0.00,29.9,28.5,00.0,38.6,31.7,23.8,0000.0,0002.51,0001.24,0000.95
2022-10-01 14:19:00,,0827.2,5.00,0.00,29.9,28.5,00.0,38.6,31.7,23.1,0000.0,0003.02,0001.20,0000.93
2022-10-01 14:20:00,,0827.2,5.01,0.00,29.9,28.5,00.0,38.6,31.8,23.4,0000.0,0003.11,0001.22,0000.94
2022-10-01 14:21:00,,0827.2,4.99,0.00,29.9,28.5,00.0,38.6,31.7,23.9,0000.0,0003.11,0001.21,0000.95
2022-10-01 14:22:00,,0827.2,5.01,0.00,29.9,28.6,00.0,38.6,31.7,24.1,0000.0,0003.13,0001.20,0000.94
2022-10-01 14:23:00,,0827.2,4.99,0.00,29.9,28.6,00.0,38.7,31.8,23.6,0000.0,0003.07,0001.20,0000.94
2022-10-01 14:24:00,,0827.4,5.01,0.00,30.0,28.6,00.0,38.7,31.8,23.3,0000.0,0003.10,0001.20,0000.95
2022-10-01 14:25:00,,0827.2,5.01,0.00,30.0,28.6,00.0,38.7,31.8,22.9,0000.0,0002.99,0001.17,0000.95
2022-10-01 14:26:00,,0827.3,4.98,0.00,30.0,28.6,00.0,38.7,31.8,23.1,0000.0,0003.03,0001.19,0000.96
2022-10-01 14:27:00,,0827.3,5.01,0.00,30.0,28.7,00.0,38.7,31.8,22.8,0000.0,0003.09,0001.21,0000.95
2022-10-01 14:28:00,,0827.4,4.98,0.00,30.0,28.7,00.0,38.7,31.8,22.5,0000.0,0003.04,0001.20,0000.95
2022-10-01 14:29:00,,0827.4,5.01,0.00,30.0,28.7,00.0,38.7,31.9,22.5,0000.0,0003.02,0001.16,0000.94
2022-10-01 14:30:00,,0827.4,5.01,0.00,30.0,28.7,00.0,38.7,31.9,22.3,0000.0,0002.30,0001.15,0000.93
2022-10-01 14:31:00,,0827.4,4.99,0.00,30.0,28.7,00.0,38.7,31.9,22.7,0000.0,0002.20,0001.13,0000.92
2022-10-01 14:32:00,,0827.4,5.01,0.00,30.0,28.7,00.0,38.7,31.9,22.5,0000.0,0002.19,0001.12,0000.91
2022-10-01 14:33:00,,0827.4,5.01,0.00,30.0,28.7,00.0,38.7,31.9,22.4,0000.0,0002.10,0001.10,0000.91
2022-10-01 14:34:00,,0827.4,4.99,0.00,30.1,28.7,00.0,38.7,31.9,22.4,0000.0,0002.10,0001.09,0000.90
2022-10-01 14:35:00,,0827.4,5.00,0.00,30.1,28.7,00.0,38.8,31.9,22.6,0000.0,0002.12,0001.09,0000.89
2022-10-01 14:36:00,,0827.4,5.01,0.00,30.1,28.7,00.0,38.8,31.9,22.5,0000.0,0002.23,0001.11,0000.89
2022-10-01 14:37:00,,0827.4,4.99,0.00,30.1,28.7,00.0,38.8,32.0,22.5,0000.0,0002.21,0001.11,0000.89
2022-10-01 14:38:00,,0827.4,5.02,0.00,30.1,28.8,00.0,38.8,32.0,22.0,0000.0,0002.20,0001.10,0000.89
2022-10-01 14:39:00,,0827.4,4.99,0.00,30.1,28.8,00.0,38.8,32.0,21.6,0000.0,0002.22,0001.11,0000.89
2022-10-01 14:40:00,,0827.4,5.00,0.00,30.1,28.8,00.0,38.8,32.0,22.1,0000.0,0001.98,0001.13,0000.90
2022-10-01 14:41:00,,0827.4,5.00,0.00,30.1,28.8,00.0,38.8,32.0,21.7,0000.0,0001.91,0001.14,0000.90
2022-10-01 14:42:00,,0827.4,4.99,0.00,30.2,28.8,00.0,38.8,32.0,21.0,0000.0,0001.96,0001.17,0000.89
2022-10-01 14:43:00,,0827.4,5.00,0.00,30.2,28.8,00.0,38.8,32.0,21.1,0000.0,0002.01,0001.19,0000.89
2022-10-01 14:44:00,,0827.4,4.99,0.00,30.2,28.9,00.0,38.8,32.0,21.1,0000.0,0002.04,0001.20,0000.90
2022-10-01 14:45:00,,0827.4,5.01,0.00,30.2,28.9,00.0,38.9,32.0,21.4,0000.0,0002.22,0001.24,0000.91
2022-10-01 14:46:00,,0827.4,5.00,0.00,30.2,28.9,00.0,38.9,32.0,21.7,0000.0,0002.38,0001.28,0000.92
2022-10-01 14:47:00,,0827.4,4.99,0.00,30.2,28.9,00.0,38.9,32.0,22.1,0000.0,0002.55,0001.31,0000.93
2022-10-01 14:48:00,,0827.4,5.01,0.00,30.2,28.9,00.0,38.9,32.0,21.8,0000.0,0002.73,0001.36,0000.94
2022-10-01 14:49:00,,0827.4,5.00,0.00,30.2,28.9,00.0,38.9,32.1,22.2,0000.0,0002.85,0001.39,0000.95
2022-10-01 14:50:00,,0827.5,4.99,0.00,30.2,29.0,00.0,38.9,32.1,22.9,0000.0,0002.94,0001.39,0000.97
2022-10-01 14:51:00,,0827.5,5.00,0.00,30.2,29.0,00.0,38.9,32.1,22.9,0000.0,0002.96,0001.43,0000.98
2022-10-01 14:52:00,,0827.5,5.01,0.00,30.3,29.0,00.0,38.9,32.1,22.5,0000.0,0002.93,0001.47,0000.99
2022-10-01 14:53:00,,0827.5,4.99,0.00,30.3,29.0,00.0,38.9,32.1,22.4,0000.0,0003.02,0001.51,0001.02
2022-10-01 14:54:00,,0827.5,5.01,0.00,30.3,29.0,00.0,39.0,32.1,22.2,0000.0,0003.46,0001.60,0001.04
2022-10-01 14:55:00,,0827.5,4.99,0.00,30.3,29.0,00.0,39.0,32.1,21.9,0000.0,0004.09,0001.67,0001.05
2022-10-01 14:56:00,,0827.6,5.00,0.00,30.3,29.0,00.0,39.0,32.1,22.6,0000.0,0003.94,0001.64,0001.06
2022-10-01 14:57:00,,0827.5,5.01,0.00,30.3,29.0,00.0,39.0,32.1,23.4,0000.0,0005.14,0001.65,0001.07
2022-10-01 14:58:00,,0827.5,4.99,0.00,30.3,29.1,00.0,39.0,32.1,22.5,0000.0,0005.17,0001.69,0001.09
2022-10-01 14:59:00,,0827.5,5.00,0.00,30.4,29.1,00.0,39.0,32.2,22.8,0000.0,0005.22,0001.73,0001.09
